EW6089 Weather Reports


time (UTC)temp
C
wind
direction
speed
KPH
gust
KPH
rain 1hr
cm
rain 24hr
cm
rain mn
cm
humidity
%
barometer
mb
20260506231015 13 0.0 3.2 0.00 0.00 0.00 81 1020.7
20260506230035 13 0.0 4.8 0.00 0.00 0.00 81 1020.8
20260506225016 13 0.0 1.6 0.00 0.00 0.00 82 1020.8
20260506224015 13 0.0 1.6 0.00 0.00 0.00 84 1020.8
20260506223036 12 0.0 1.6 0.00 0.00 0.00 84 1020.9
20260506222015 12 0.0 1.6 0.00 0.00 0.00 85 1021.0
20260506221016 12 0.0 1.6 0.00 0.00 0.00 86 1021.0
20260506220015 12 0.0 1.6 0.00 0.00 0.00 87 1020.9
20260506215038 12 0.0 1.6 0.00 0.00 0.00 88 1021.0
20260506214017 12 0.0 1.6 0.00 0.00 0.00 88 1021.0
20260506213038 12 0.0 1.6 0.00 0.00 0.00 88 1021.0
20260506212018 12 0.0 6.4 0.00 0.00 0.00 86 1021.0
20260506211017 12 0.0 3.2 0.00 0.00 0.00 86 1020.9
20260506210017 12 0.0 3.2 0.00 0.00 0.00 86 1020.9
20260506205017 13 0.0 0.0 0.00 0.00 0.00 86 1020.9
20260506204018 13 0.0 0.0 0.00 0.00 0.00 86 1020.8
20260506203017 13 0.0 3.2 0.00 0.00 0.00 87 1020.8
20260506202017 13 0.0 3.2 0.00 0.00 0.00 85 1020.7
20260506201018 13 0.0 6.4 0.00 0.00 0.00 86 1020.7
20260506200037 13 0.0 4.8 0.00 0.00 0.00 85 1020.6
20260506195017 13 0.0 1.6 0.00 0.00 0.00 85 1020.5
20260506194017 13 0.0 4.8 0.00 0.00 0.00 84 1020.5
20260506193017 13 0.0 1.6 0.00 0.00 0.00 86 1020.4
20260506192017 13 0.0 4.8 0.00 0.00 0.00 87 1020.3
20260506191017 12 0.0 1.6 0.00 0.00 0.00 88 1020.5
20260506190018 12 0.0 4.8 0.00 0.00 0.00 87 1020.6
20260506185017 13 0.0 1.6 0.00 0.00 0.00 88 1020.6
20260506184018 13 0.0 6.4 0.00 0.00 0.00 87 1020.5
20260506183017 13 0.0 4.8 0.00 0.00 0.00 88 1020.5
20260506182017 12 0.0 4.8 0.00 0.00 0.00 88 1020.3
20260506181017 12 113 1.6 6.4 0.00 0.00 0.00 88 1020.2
20260506180038 13 0.0 3.2 0.00 0.00 0.00 87 1020.2
20260506175017 13 0.0 3.2 0.00 0.00 0.00 87 1020.1
20260506174018 13 23 1.6 6.4 0.00 0.00 0.00 87 1020.3
20260506173017 13 0.0 4.8 0.00 0.00 0.00 86 1020.3
20260506172017 13 0.0 4.8 0.00 0.00 0.00 86 1020.3
20260506171038 13 0.0 4.8 0.00 0.00 0.00 87 1020.3
20260506170017 13 0.0 3.2 0.00 0.00 0.00 86 1020.1
20260506165017 13 0.0 3.2 0.00 0.00 0.00 87 1020.0
20260506164017 13 0.0 1.6 0.00 0.00 0.00 87 1019.9
20260506163017 13 0.0 4.8 0.00 0.00 0.00 88 1019.7
20260506162017 13 0.0 1.6 0.00 0.00 0.00 88 1019.6
20260506161037 12 0.0 1.6 0.00 0.00 0.00 88 1019.7
20260506160017 12 0.0 1.6 0.00 0.00 0.00 88 1019.7
20260506155017 12 0.0 3.2 0.00 0.00 0.00 89 1019.8
20260506154017 12 0.0 3.2 0.00 0.00 0.00 90 1019.9
20260506153037 12 0.0 0.0 0.00 0.00 0.00 90 1019.8
20260506152017 12 0.0 0.0 0.00 0.00 0.00 91 1019.8
20260506151057 12 0.0 0.0 0.00 0.00 0.00 91 1019.6
20260506150017 12 0.0 1.6 0.00 0.00 0.00 91 1019.7
20260506145017 12 0.0 3.2 0.00 0.00 0.00 91 1019.7
20260506144017 12 0.0 3.2 0.00 0.00 0.00 91 1019.6
20260506143017 12 0.0 0.0 0.00 0.00 0.00 91 1019.6
20260506142017 12 0.0 0.0 0.00 0.00 0.00 91 1019.6
20260506141016 12 0.0 0.0 0.00 0.00 0.00 91 1019.5
20260506140017 12 0.0 0.0 0.00 0.00 0.00 91 1019.7
20260506135016 12 0.0 1.6 0.00 0.00 0.00 92 1019.5
20260506134017 12 0.0 0.0 0.00 0.00 0.00 92 1019.4
20260506133017 12 0.0 1.6 0.00 0.00 0.00 92 1019.4
20260506132037 12 0.0 1.6 0.00 0.00 0.00 92 1019.2
20260506131016 12 0.0 0.0 0.00 0.00 0.00 92 1018.9
20260506130016 12 0.0 0.0 0.00 0.00 0.00 93 1019.2
20260506125017 11 0.0 0.0 0.00 0.00 0.00 94 1019.0
20260506124016 11 0.0 0.0 0.00 0.00 0.00 94 1018.8
20260506123017 11 0.0 0.0 0.00 0.00 0.00 94 1018.8
20260506122037 11 0.0 0.0 0.00 0.00 0.00 94 1018.7
20260506121016 11 0.0 0.0 0.00 0.00 0.00 95 1018.8
20260506120017 11 0.0 0.0 0.00 0.00 0.00 95 1018.7
20260506115016 11 0.0 0.0 0.00 0.00 0.00 95 1018.6
20260506114016 11 0.0 0.0 0.00 0.00 0.00 95 1018.5
20260506113016 11 0.0 0.0 0.00 0.00 0.00 95 1018.5
20260506112016 11 0.0 0.0 0.00 0.00 0.00 95 1018.5
20260506111037 11 0.0 0.0 0.00 0.00 0.00 96 1018.4
20260506110016 11 0.0 0.0 0.00 0.00 0.00 96 1018.4
20260506105036 11 0.0 0.0 0.00 0.00 0.00 96 1018.2
20260506104017 11 0.0 0.0 0.00 0.00 0.00 96 1018.1
20260506103037 11 0.0 0.0 0.00 0.00 0.00 96 1018.0
20260506102016 11 0.0 0.0 0.00 0.00 0.00 95 1018.0
20260506101016 11 0.0 0.0 0.00 0.00 0.00 95 1017.9
20260506100016 11 0.0 0.0 0.00 0.00 0.00 95 1017.8
20260506095016 11 0.0 0.0 0.00 0.00 0.00 95 1017.7
20260506094016 11 0.0 0.0 0.00 0.00 0.00 95 1017.6
20260506093016 10 0.0 0.0 0.00 0.00 0.00 95 1017.5
20260506092056 10 0.0 0.0 0.00 0.00 0.00 95 1017.5
20260506091017 10 0.0 0.0 0.00 0.00 0.00 95 1017.4
20260506090016 10 0.0 0.0 0.00 0.00 0.00 95 1017.3
20260506085037 10 0.0 0.0 0.00 0.00 0.00 95 1017.2
20260506084016 10 0.0 0.0 0.00 0.00 0.00 95 1017.1
20260506083016 11 0.0 0.0 0.00 0.00 0.00 94 1017.1
20260506082016 11 0.0 0.0 0.00 0.00 0.00 94 1017.1
20260506081016 11 0.0 0.0 0.00 0.00 0.00 94 1017.1
20260506073016 11 0.0 0.0 0.00 0.00 0.00 94 1017.1
20260506072016 11 0.0 0.0 0.00 0.00 0.00 93 1017.1
20260506071016 11 0.0 0.0 0.00 0.00 0.00 93 1017.0
20260506062016 11 0.0 0.0 0.00 0.00 0.00 92 1016.4
20260506061017 12 0.0 0.0 0.00 0.00 0.00 92 1016.4
20260506051016 12 0.0 0.0 0.00 0.00 0.00 91 1015.9
20260506045016 12 0.0 0.0 0.00 0.00 0.00 90 1015.9
20260506044015 13 0.0 0.0 0.00 0.00 0.00 89 1015.7
20260506043015 13 0.0 0.0 0.00 0.00 0.00 89 1015.7
20260506042015 13 0.0 0.0 0.00 0.00 0.00 88 1015.7
20260506041015 13 0.0 0.0 0.00 0.00 0.00 88 1015.7
20260506040035 13 0.0 0.0 0.00 0.00 0.00 87 1015.6
20260506035015 14 0.0 0.0 0.00 0.00 0.00 87 1015.6
20260506034036 14 0.0 0.0 0.00 0.00 0.00 86 1015.5
20260506033015 15 0.0 0.0 0.00 0.00 0.00 85 1015.4
20260506032036 15 0.0 0.0 0.00 0.00 0.00 84 1015.3
20260506031015 15 0.0 0.0 0.00 0.00 0.00 84 1015.3
20260506030035 15 0.0 0.0 0.00 0.00 0.00 83 1015.2
20260506025015 15 0.0 0.0 0.00 0.00 0.00 81 1015.1
20260506024015 16 0.0 0.0 0.00 0.00 0.00 80 1015.1
20260506023036 16 0.0 0.0 0.00 0.00 0.00 80 1015.0
20260506022015 16 0.0 0.0 0.00 0.00 0.00 78 1015.0
20260506021015 16 0.0 0.0 0.00 0.00 0.00 77 1015.0
20260506020016 16 0.0 0.0 0.00 0.00 0.00 78 1015.0
20260506015016 16 0.0 0.0 0.00 0.00 0.00 77 1015.0
20260506014015 17 0.0 0.0 0.00 0.00 0.00 75 1015.0
20260506013015 17 0.0 0.0 0.00 0.00 0.00 75 1015.0
20260506012017 17 0.0 0.0 0.00 0.00 0.00 75 1015.0
20260506011016 17 0.0 0.0 0.00 0.00 0.00 74 1015.0
20260506010015 17 0.0 1.6 0.00 0.00 0.00 73 1015.1
20260506005016 17 0.0 3.2 0.00 0.00 0.00 74 1015.2
20260506004017 17 0.0 4.8 0.00 0.00 0.00 73 1015.2
20260506003017 17 0.0 1.6 0.00 0.00 0.00 74 1015.2
20260506002017 17 0.0 3.2 0.00 0.00 0.00 74 1015.2
20260506001017 17 0.0 1.6 0.00 0.00 0.00 74 1015.2
20260506000017 17 0.0 4.8 0.00 0.00 0.00 73 1015.5
20260505235017 17 0.0 4.8 0.00 0.00 0.00 74 1015.7
20260505234017 17 113 1.6 4.8 0.00 0.00 0.00 74 1015.7
20260505233037 16 0.0 4.8 0.00 0.00 0.00 75 1015.7
20260505232018 16 0.0 3.2 0.00 0.00 0.00 77 1015.7